Flag for U.S.A. Weather past 2 weeks in Des Moines, Iowa, U.S.A.

Now
45 °F

Passing clouds.


Feels Like: 40 °F
Forecast: 34 / 43 °F
Wind: 9 mph from Northwest

Location: Des Moines International Airport

Current Time: Jan 26, 2015 at 8:11:02 PM

Latest Report: Jan 26, 2015 at 7:54 PM


Visibility: 10 mi

Pressure: 29.96 "Hg

Humidity: 71%

Dew point: 36 °F

Location of Des MoinesLocation

Historic Weather in Des Moines — Graph

°F

Des Moines temperature yesterday

Maximum temperature yesterday: 41 °F (at 12:54 AM)
Minimum temperature yesterday: 32 °F (at 10:54 PM)
Average temperature yesterday: 36 °F

Past Weeks' High & Low Weather Summary

 TemperatureHumidityPressure
High56 °F (Jan 16, 2:54 PM)89% (Jan 15, 10:54 PM)30.82 "Hg (Jan 15, 10:54 PM)
Low-5 °F (Jan 13, 6:54 AM)36% (Jan 16, 2:54 PM)29.55 "Hg (Jan 25, 2:01 AM)
Average32 °F69%30.11 "Hg
* Reported Jan 11 6:54 PM — Jan 26 6:54 PM, Des Moines, Weather by CustomWeather, © 2014

Note: Actual official high and low records may vary slightly from our data, if they occured in-between our weather recording intervals... More about our weather records

Advertising

Des Moines weather history for previous 24 hours

 ConditionsComfort  
Time TempWeatherWind HumidityBarometerVisibility
6:54 PM
Jan 26
46 °FPassing clouds.14 mph68%29.94 "Hg10 mi
5:54 PM48 °FPassing clouds.15 mph63%29.91 "Hg10 mi
4:54 PM50 °FPassing clouds.22 mph61%29.88 "Hg10 mi
3:54 PM53 °FPassing clouds.18 mph52%29.87 "Hg10 mi
2:54 PM53 °FPassing clouds.22 mph52%29.86 "Hg10 mi
1:54 PM52 °FPassing clouds.20 mph55%29.83 "Hg10 mi
12:54 PM50 °FPassing clouds.21 mph59%29.83 "Hg10 mi
11:54 AM46 °FPassing clouds.21 mph63%29.84 "Hg10 mi
10:54 AM43 °FPassing clouds.13 mph65%29.83 "Hg10 mi
9:54 AM38 °FBroken clouds.16 mph73%29.83 "Hg10 mi
8:54 AM34 °FMostly cloudy.13 mph79%29.84 "Hg10 mi
7:54 AM33 °FPartly sunny.17 mph78%29.86 "Hg10 mi
6:54 AM33 °FPassing clouds.7 mph78%29.95 "Hg10 mi
5:54 AM33 °FMostly cloudy.9 mph75%29.96 "Hg10 mi
4:54 AM32 °FOvercast.6 mph79%30.03 "Hg10 mi
3:54 AM32 °FOvercast.7 mph75%30.00 "Hg10 mi
2:54 AM32 °FOvercast.8 mph79%30.04 "Hg10 mi
1:54 AM32 °FOvercast.6 mph73%30.06 "Hg10 mi
12:54 AM32 °FOvercast.5 mph73%30.06 "Hg10 mi
11:54 PM
Jan 25
32 °FOvercast.3 mph73%30.08 "Hg10 mi
10:54 PM32 °FOvercast.6 mph69%30.09 "Hg10 mi
9:54 PM33 °FOvercast.7 mph70%30.10 "Hg10 mi
8:54 PM33 °FOvercast.6 mph70%30.10 "Hg10 mi
Weather by CustomWeather, © 2014

See weather overviewHow to use our weather pages